Regional Weather Roundup
Issued by NWS Wakefield, VA

Home | Current Version | Previous Version | Graphics & Text | Print | Product List | Glossary On
Versions: 1 2 3 4 5 6 7 8 9 10 11 12 13 14 15 16 17 18 19 20 21 22 23 24 25 26 27 28 29 30 31 32 33 34 35 36 37 38 39 40 41 42 43 44 45 46 47 48 49 50
938
ASUS41 KAKQ 261615
RWRAKQ

REGIONAL WEATHER ROUNDUP
NATIONAL WEATHER SERVICE WAKEFIELD VA
1200 PM EDT WED APR 26 2017

Note: "fair" indicates few or no clouds below 12,000 feet with no
significant weather and/or obstructions to visibility. * = Denotes
station may not report precipitation (e.g., rain,snow,etc.),
thunder or fog.

VAZ042-051-052>054-056-261700-
NORTHERN VIRGINIA

CITY           SKY/WX    TMP DP  RH WIND       PRES   REMARKS
WASH NATIONAL  CLOUDY    66  58  75 N6        29.79F
DULLES         CLOUDY    63  55  75 NW7       29.80S
FORT BELVOIR   CLOUDY    64  56  76 N3        29.79F
QUANTICO       PTSUNNY   66  58  75 N5        29.80S
FREDERICKSBRG* PTSUNNY   68  58  71 CALM      29.78S
STAFFORD*      CLOUDY    66  60  80 NW6       29.83F
WARRENTON      CLOUDY    69  55  61 CALM      29.79S
CULPEPER*      CLOUDY    68  59  72 CALM      29.80F
MANASSAS*        N/A     66  58  75 N8        29.80S
LEESBURG*      CLOUDY    63  61  94 N7        29.81S
WINCHESTER     CLOUDY    63  55  77 N3        29.80F
FRONT ROYAL*   PTSUNNY   64  57  77 CALM      29.79F
LURAY*         FAIR      68  59  73 CALM      29.80S
$$

VAZ048-049-060>072-079>083-261700-
CENTRAL AND SOUTH CENTRAL VIRGINIA

CITY           SKY/WX    TMP DP  RH WIND       PRES   REMARKS
RICHMOND       CLOUDY    67  58  72 W6        29.80S
CHESTERFIELD*  CLOUDY    68  45  42 W7        29.82S
PETERSBURG*    CLOUDY    67  55  64 CALM      29.81F
HANOVER        CLOUDY    68  57  68 W8        29.81S
TAPPAHANNOCK*  PTSUNNY   67  59  75 NE5       29.80F
QUINTON*       FAIR      67  60  78 CALM      29.79F
CHARLOTTSVILLE FAIR      71  56  58 S5        29.78F
GORDONSVILLE*  PTSUNNY   69  58  68 CALM      29.78F
ORANGE*        PTSUNNY   68  59  73 CALM      29.79F
LOUISA*        PTSUNNY   73  63  68 CALM      29.79S
BUMPASS*       CLOUDY    67  58  74 SW3       29.79F
FARMVILLE*     FAIR      72  59  62 S5        29.79F
CREWE*         FAIR      70  58  66 W3        29.80F
FORT PICKETT*  FAIR      70  55  57 W10       29.81F
CHASE CITY*    CLOUDY    71  59  64 NW3       29.81F
CLARKSVILLE*   PTSUNNY   70  61  73 SW5       29.81F
SOUTH HILL*    PTSUNNY   69  60  70 W5        29.87S
LAWRENCEVILLE* CLOUDY    69  58  66 W3        29.81F
EMPORIA*       CLOUDY    70  57  64 NW8       29.82F
$$

VAZ088>098-261700-
SOUTHEAST VIRGINIA

CITY           SKY/WX    TMP DP  RH WIND       PRES   REMARKS
NORFOLK        CLOUDY    68  59  73 W7        29.79F
VIRGINIA BEACH PTSUNNY   68  58  70 W10       29.78F
NORFOLK NAVAL  PTSUNNY   66  59  78 W10       29.81S
WEST POINT*    PTSUNNY   66  59  78 W7        29.80F
SALUDA*        CLOUDY    64  61  88 NW5       29.79S
NEWPORT NEWS   CLOUDY    66  59  78 NW7       29.80S
LANGLEY AFB    CLOUDY    66  62  85 W8        29.79S
FORT EUSTIS    NOT AVBL
WILLIAMSBURG*  FAIR      66  63  88 CALM      29.81S
HR EXEC AP*    CLOUDY    66  59  77 W5        29.79S
FRANKLIN*      CLOUDY    66  58  75 W8        29.82S
US460-WAKEFLD  CLOUDY    66  58  75 W6        29.81S
$$

VAZ020-022-025-037-045-261700-
WEST CENTRAL AND SOUTHWEST VIRGINIA

CITY           SKY/WX    TMP DP  RH WIND       PRES   REMARKS
STAUNTON*      FAIR      63  56  78 NE3       29.83F
WAYNESBORO*    FAIR      66  60  80 CALM      29.81F
HOT SPRINGS VA FAIR      63  50  63 W9        29.89S
LYNCHBURG      FAIR      72  57  59 NW6       29.82F
DANVILLE       FAIR      73  63  70 SW10      29.81F
SOUTH BOSTON*  CLOUDY    72  61  68 W6        29.81F
MARTINSVILLE   FAIR      73  59  61 CALM      29.85S
ROANOKE        FAIR      70  59  68 SW3       29.83F
BLACKSBURG     FAIR      69  57  63 CALM      29.88F
DUBLIN*        CLOUDY    72  52  50 CALM      29.86S
MARION*        FAIR      70  59  68 CALM      29.89F
HILLSVILLE*    PTSUNNY   67  58  73 CALM      29.87S
RICHLANDS*     FAIR      67  55  64 CALM      29.87F
WISE*          FAIR      70  54  56 SW5       29.87F
ABINGDON*      FAIR      71  59  66 W6        29.86F
$$

MDZ021>025-VAZ099-100-261700-
SOUTHERN MARYLAND AND THE DELMARVA PENINSULA

CITY           SKY/WX    TMP DP  RH WIND       PRES   REMARKS
PATUXENT RIVER CLOUDY    60  60 100 NW9       29.79S
BAY BRIDGE APT CLOUDY    59  57  94 N6        29.80R FOG
LEONARDTOWN    CLOUDY    61  55  82 N3        29.80F
DOVER          NOT AVBL
GEORGETOWN     CLOUDY    62  59  90 N6        29.77R
EASTON         CLOUDY    59  57  94 NW7       29.82R FOG
CAMBRIDGE      CLOUDY    59  59 100 NW8       29.79R FOG
SALISBURY      CLOUDY    62  60  93 NW8       29.77R
OCEAN CITY     CLOUDY    60  57  89 N8        29.77R
WALLOPS ISLAND CLOUDY    60  59  96 W8        29.78R
ACCOMACK*      CLOUDY    61  55  82 NW9       29.79S
$$

NCZ012>017-030>032-261700-
NORTH CENTRAL AND EASTERN NORTH CAROLINA

CITY           SKY/WX    TMP DP  RH WIND       PRES   REMARKS
ROANOKE RAPIDS CLOUDY    70  59  68 W5        29.83S
RALEIGH        PTSUNNY   73  62  68 SW7       29.84F
ELIZABETH CITY CLOUDY    67  62  84 SW9       29.82S
AHOSKIE*         N/A     67  58  71 W3        29.83S
EDENTON*       CLOUDY    68  59  74 CALM      29.84S
CURRITUCK*     CLOUDY    65  61  86 W8        29.82S
KILL DEVIL HLS CLOUDY    64  60  89 W5        29.82R
MANTEO         CLOUDY    64  61  90 NW8       29.83S
CAPE HATTERAS  CLOUDY    70  59  68 VRB7      29.84R
TARBORO*       NOT AVBL
GOLDSBORO      CLOUDY    72  63  74 SW7       29.84S
WASHINGTON     FAIR      69  60  71 W7        29.84S
GREENVILLE     FAIR      72  59  64 NW8       29.86S
NEW BERN       FAIR      74  62  66 W10       29.86R
WILMINGTON     CLOUDY    73  60  63 W6        29.88R
$$

VAZ048-261700-
ELSEWHERE

CITY           SKY/WX    TMP DP  RH WIND       PRES   REMARKS
HARRISBURG PA  CLOUDY    58  57  97 W6        29.81R
BALTIMORE      DRIZZLE   61  59  93 N5        29.79S
ANNAPOLIS      CLOUDY    63  57  81 N5        29.79R
ANDREWS AFB    CLOUDY    62  56  83 N8        29.78F
PHILADELPHIA   CLOUDY    60  56  86 N8        29.78R
HENDERSON NC     N/A     69  58  68 W7        29.82F
GREENSBORO     FAIR      70  62  76 SW10      29.84F
ROCKY MOUNT    FAIR      73  62  68 W7        29.83S
$$

VAZ100-261700-
MARINE

STATION/POSITION TIME  TEMP    WIND        PRES    WAVE   SWELL
                       AIR SEA DIR/SP/G            HT/PER HT/PER
                 (UTC) (F)     (DEG/KT/KT) (MB)    (FT/S) (FT/S)
LEWES DE         1548   56 55  320/  6/  7 1008.0R
15NM E FENWICK I 1550   51 52  360/  6/  8 1008.0R   7/10   7/10
OCEAN-CITY-INLET 1548   55 53   30/  6/  7 1008.2R
WACHAPREAGUE VA  1548   62 60  240/  4/  9 1008.2R
THOMAS POINT MD  1600   59 56  360/  4/  5   N/A
GOOSES REEF MD   1600   58 53  360/  4/  4 1009.5    1
COVE POINT MD    1548   58     360/  6/  7 1009.3S
SOLOMONS ISLAND  1548   61 60  330/  8/ 11   N/A
BISHOPS HEAD MD  1548   59 60  300/ 12/ 14 1009.0R
PINEY POINT MD   1548          320/  6/  6   N/A
POTOMAC MD       1600   60 60  300/ 10/ 12 1007.7    1/ 3
CAMBRIDGE MD     1542   59 62                N/A
LEWISETTA VA     1548   62 61  360/  8/ 10 1008.5S
RAPPAHANNOCK LGT 1548          290/  8/  8 1009.3R
STINGRAY PT      1550   62     300/ 10/ 12 1008.7S
YORK RVR RNG VA  1548   63     260/  8/  9 1008.2S
YORKTOWN VA      1548   63 63  330/  5/  6 1008.7S
JAMESTOWN VA     1600   63 67  270/  8/ 10   N/A     0
DOMINION TERM VA 1548   63     310/  8/  9 1009.3R
KIPTOPEKE VA     1518      60  290/  8/  9   N/A
CHES BAY BRIDGE  1548   63 62  290/ 10/ 12 1008.8R
CAPE HENRY VA    1548   64     300/  9/ 13   N/A
WILLOUBY STN VA  1548   63     260/ 11/ 12 1009.9S
S CRANEY ISL VA  1548   66     280/  7/  9 1009.0R
CAPE HENRY BUOY  1542      56                N/A     4/11   2/11
1ST LANDING BUOY 1600   63 61              1009.1    2/ 5
CAPE CHARLES BUO 1551      57                N/A     4/11   2/11
64NM E OF VA BCH 1550   56 55  270/  8/ 10 1009.8R   7/ 9   7/ 9
DUCK PIER NC     1548   64 59  260/ 12/ 14 1009.2R
44100 DUCK FRF   1535      57                N/A     5/11   2/11
44056 DUCK FRF   1530      60                N/A     4/ 9   2/11
OREGON INLET NC  1542   63 64  260/  7/ 10 1009.9R
HATTERAS NC      1548   67 68  260/ 11/ 12 1010.2R
DIAMOND SHLS NC  1550   68 76  280/ 10/ 14 1010.5R   7/ 9   7/ 9
CAPE LOOKOUT NC  1600   68     260/  9/ 11 1010.9R
$$




USA.gov is the U.S. government's official web portal to all federal, state and local government web resources and services.